P4MALC GMAT-GOBD

Flight info

Callsign P4MALC
Flight time N/A
Altitude 20000
Route TNN DCT GLM DCT DIDAN/N0165F180 R975 ECHED/N0168F200 T975 CARIM R975 SAKLI
Aircraft BT36/L-BDFGLORY/S

Departure

Time 2026-05-05 15:41
Airport Tan Tan Airport (GMAT)

Arrival

Time N/A
Airport Blaise Diagne International Airport (GOBD)
Time Latitude Longitude Altitude Speed Heading
2026-05-05 15:32 28.44623 -11.15939 638 ft 0 kts 257°
2026-05-05 15:34 28.44623 -11.15940 638 ft 0 kts 257°
2026-05-05 15:39 28.44619 -11.16000 638 ft 15 kts 283°
2026-05-05 15:39 28.44667 -11.16124 640 ft 19 kts 300°
2026-05-05 15:40 28.44749 -11.16171 639 ft 9 kts 23°
2026-05-05 15:40 28.44764 -11.16163 638 ft 0 kts 24°
2026-05-05 15:40 28.44868 -11.16107 638 ft 52 kts 26°
2026-05-05 15:40 28.45165 -11.15935 668 ft 89 kts 21°
2026-05-05 15:41 28.45982 -11.15467 1185 ft 106 kts 25°
2026-05-05 15:41 28.46465 -11.14906 1861 ft 101 kts 57°
2026-05-05 15:41 28.46482 -11.14053 2301 ft 121 kts 110°
2026-05-05 15:41 28.46069 -11.13597 2642 ft 128 kts 150°
2026-05-05 15:42 28.45222 -11.13260 3050 ft 134 kts 155°
2026-05-05 15:42 28.44198 -11.12492 3635 ft 127 kts 137°
2026-05-05 15:42 28.43743 -11.12089 3964 ft 125 kts 143°
2026-05-05 15:42 28.43042 -11.11508 4446 ft 125 kts 147°
2026-05-05 15:43 28.42332 -11.10935 4930 ft 126 kts 150°
2026-05-05 15:43 28.41611 -11.10359 5397 ft 125 kts 153°
2026-05-05 15:43 28.40909 -11.09799 5868 ft 122 kts 152°
2026-05-05 15:43 28.40201 -11.09239 6333 ft 126 kts 154°
2026-05-05 15:44 28.39476 -11.08673 6767 ft 127 kts 155°
2026-05-05 15:44 28.38731 -11.08086 7169 ft 132 kts 154°
2026-05-05 15:44 28.37986 -11.07499 7575 ft 134 kts 155°
2026-05-05 15:44 28.37213 -11.06887 8012 ft 135 kts 155°
2026-05-05 15:45 28.36444 -11.06278 8479 ft 135 kts 156°
2026-05-05 15:45 28.35671 -11.05660 8931 ft 138 kts 150°
2026-05-05 15:45 28.34915 -11.04974 9353 ft 138 kts 152°
2026-05-05 15:45 28.34121 -11.04401 9815 ft 135 kts 163°
2026-05-05 15:46 28.33273 -11.03787 9963 ft 159 kts 160°
2026-05-05 15:46 28.32273 -11.03037 9977 ft 184 kts 156°
2026-05-05 15:46 28.31185 -11.02162 9974 ft 196 kts 154°
2026-05-05 15:46 28.30091 -11.01279 9966 ft 189 kts 155°
2026-05-05 15:47 28.29048 -11.00447 9963 ft 183 kts 156°
2026-05-05 15:47 28.28019 -10.99635 9958 ft 178 kts 156°
2026-05-05 15:47 28.27005 -10.98839 9954 ft 175 kts 156°
2026-05-05 15:47 28.26004 -10.98051 9952 ft 175 kts 156°
2026-05-05 15:48 28.25002 -10.97263 9951 ft 174 kts 156°
2026-05-05 15:48 28.24004 -10.96475 9950 ft 173 kts 156°
2026-05-05 15:48 28.23031 -10.95711 9944 ft 172 kts 157°
2026-05-05 15:48 28.22044 -10.94941 9935 ft 172 kts 156°
2026-05-05 15:49 28.21058 -10.94165 9938 ft 173 kts 156°
2026-05-05 15:49 28.20067 -10.93385 9936 ft 173 kts 156°
2026-05-05 15:49 28.19078 -10.92606 9933 ft 173 kts 156°
2026-05-05 15:49 28.18092 -10.91831 9933 ft 171 kts 157°
2026-05-05 15:50 28.17116 -10.91067 9938 ft 171 kts 157°
2026-05-05 15:50 28.16142 -10.90300 9935 ft 170 kts 157°
2026-05-05 15:50 28.15166 -10.89533 9936 ft 170 kts 157°
2026-05-05 15:50 28.14190 -10.88768 9936 ft 171 kts 157°
2026-05-05 15:51 28.13213 -10.88001 9930 ft 171 kts 157°
2026-05-05 15:51 28.12235 -10.87235 9936 ft 172 kts 157°
2026-05-05 15:51 28.11245 -10.86458 9923 ft 173 kts 156°
2026-05-05 15:51 28.10266 -10.85691 9923 ft 173 kts 156°
2026-05-05 15:52 28.09282 -10.84917 9924 ft 172 kts 156°
2026-05-05 15:52 28.08300 -10.84148 9923 ft 172 kts 156°
2026-05-05 15:52 28.07317 -10.83377 9923 ft 172 kts 156°
2026-05-05 15:52 28.06333 -10.82606 9922 ft 171 kts 156°
2026-05-05 15:53 28.05351 -10.81837 9924 ft 171 kts 156°
2026-05-05 15:53 28.04374 -10.81072 9923 ft 171 kts 156°
2026-05-05 15:53 28.03395 -10.80305 9923 ft 171 kts 156°
2026-05-05 15:53 28.02413 -10.79537 9923 ft 172 kts 156°
2026-05-05 15:54 28.01434 -10.78769 9921 ft 171 kts 156°
2026-05-05 15:54 28.00455 -10.78003 9920 ft 171 kts 156°
2026-05-05 15:54 27.99477 -10.77239 9913 ft 171 kts 156°
2026-05-05 15:54 27.98503 -10.76480 9917 ft 173 kts 156°
2026-05-05 15:55 27.97509 -10.75702 9918 ft 173 kts 156°
2026-05-05 15:55 27.96523 -10.74927 9906 ft 172 kts 154°
2026-05-05 15:55 27.95562 -10.74161 9916 ft 168 kts 158°
2026-05-05 15:55 27.94587 -10.73421 9910 ft 168 kts 158°
2026-05-05 15:56 27.93622 -10.72667 9923 ft 169 kts 158°
2026-05-05 15:56 27.92647 -10.71904 9920 ft 171 kts 158°
2026-05-05 15:56 27.91672 -10.71139 9919 ft 170 kts 158°
2026-05-05 15:56 27.90711 -10.70388 9919 ft 170 kts 158°
2026-05-05 15:57 27.89741 -10.69631 9917 ft 169 kts 158°
2026-05-05 15:57 27.88771 -10.68874 9911 ft 169 kts 158°
2026-05-05 15:57 27.87805 -10.68121 9910 ft 169 kts 158°
2026-05-05 15:57 27.86831 -10.67362 9910 ft 169 kts 158°
2026-05-05 15:58 27.85862 -10.66605 9908 ft 170 kts 158°
2026-05-05 15:58 27.84889 -10.65847 9907 ft 170 kts 158°
2026-05-05 15:58 27.83920 -10.65091 9907 ft 169 kts 158°
2026-05-05 15:58 27.82959 -10.64342 9908 ft 170 kts 158°
2026-05-05 15:59 27.81986 -10.63584 9909 ft 170 kts 158°
2026-05-05 15:59 27.81014 -10.62827 9909 ft 170 kts 158°
2026-05-05 15:59 27.80036 -10.62066 9909 ft 170 kts 158°
2026-05-05 15:59 27.79064 -10.61308 9909 ft 169 kts 158°
2026-05-05 16:00 27.78097 -10.60555 9904 ft 169 kts 158°
2026-05-05 16:00 27.77129 -10.59801 9904 ft 169 kts 158°
2026-05-05 16:00 27.76162 -10.59049 9905 ft 168 kts 158°
2026-05-05 16:00 27.75208 -10.58307 9904 ft 168 kts 158°
2026-05-05 16:01 27.74247 -10.57560 9904 ft 168 kts 158°
2026-05-05 16:01 27.73285 -10.56812 9897 ft 168 kts 158°
2026-05-05 16:01 27.72322 -10.56064 9897 ft 168 kts 158°
2026-05-05 16:01 27.71355 -10.55313 9897 ft 169 kts 158°
2026-05-05 16:02 27.70388 -10.54559 9897 ft 169 kts 158°
2026-05-05 16:02 27.69419 -10.53807 9897 ft 169 kts 158°
2026-05-05 16:02 27.68451 -10.53055 9897 ft 169 kts 158°
2026-05-05 16:02 27.67478 -10.52320 9896 ft 165 kts 164°
2026-05-05 16:03 27.66443 -10.52007 9889 ft 148 kts 189°
2026-05-05 16:03 27.65469 -10.52159 9884 ft 137 kts 209°
2026-05-05 16:03 27.64577 -10.52537 9886 ft 137 kts 210°
2026-05-05 16:03 27.63675 -10.52905 9887 ft 138 kts 210°
2026-05-05 16:04 27.62784 -10.53272 9888 ft 139 kts 210°
2026-05-05 16:04 27.61876 -10.53646 9888 ft 139 kts 210°
2026-05-05 16:04 27.60969 -10.54021 9888 ft 139 kts 210°
2026-05-05 16:04 27.60058 -10.54398 9887 ft 139 kts 210°
2026-05-05 16:05 27.59150 -10.54773 9887 ft 139 kts 210°
2026-05-05 16:05 27.58245 -10.55146 9886 ft 138 kts 210°
2026-05-05 16:05 27.57346 -10.55517 9886 ft 138 kts 210°
2026-05-05 16:05 27.56444 -10.55889 9887 ft 138 kts 210°
2026-05-05 16:06 27.55538 -10.56265 9884 ft 139 kts 209°
2026-05-05 16:06 27.54626 -10.56640 9885 ft 140 kts 210°
2026-05-05 16:06 27.53713 -10.57016 9887 ft 140 kts 210°
2026-05-05 16:06 27.52798 -10.57394 9893 ft 140 kts 210°
2026-05-05 16:07 27.51881 -10.57771 9890 ft 141 kts 210°
2026-05-05 16:07 27.50973 -10.58146 9890 ft 140 kts 210°
2026-05-05 16:07 27.50056 -10.58524 9892 ft 140 kts 210°
2026-05-05 16:07 27.49144 -10.58899 9883 ft 139 kts 210°
2026-05-05 16:08 27.48235 -10.59273 9885 ft 139 kts 210°
2026-05-05 16:08 27.47328 -10.59647 9882 ft 139 kts 210°
2026-05-05 16:08 27.46423 -10.60021 9883 ft 138 kts 210°
2026-05-05 16:08 27.45522 -10.60391 9881 ft 137 kts 210°
2026-05-05 16:09 27.44626 -10.60761 9878 ft 138 kts 210°
2026-05-05 16:09 27.43724 -10.61131 9879 ft 137 kts 210°
2026-05-05 16:09 27.42826 -10.61502 9880 ft 138 kts 210°
2026-05-05 16:09 27.41924 -10.61873 9878 ft 138 kts 210°
2026-05-05 16:10 27.41023 -10.62243 9879 ft 138 kts 210°
2026-05-05 16:10 27.40129 -10.62612 9878 ft 139 kts 210°
2026-05-05 16:10 27.39221 -10.62984 9878 ft 139 kts 210°
2026-05-05 16:10 27.38316 -10.63355 9878 ft 138 kts 210°
2026-05-05 16:11 27.37411 -10.63729 9879 ft 139 kts 210°
2026-05-05 16:11 27.34691 -10.64847 9877 ft 138 kts 210°
2026-05-05 16:12 27.33783 -10.65221 9872 ft 139 kts 211°
2026-05-05 16:12 27.31956 -10.65970 9875 ft 140 kts 210°
2026-05-05 16:13 27.29232 -10.67088 9871 ft 138 kts 210°
2026-05-05 16:13 27.28335 -10.67457 9869 ft 137 kts 210°
2026-05-05 16:13 27.27439 -10.67825 9873 ft 138 kts 210°
2026-05-05 16:14 27.25630 -10.68567 9872 ft 139 kts 210°
2026-05-05 16:14 27.23811 -10.69313 9874 ft 140 kts 210°
2026-05-05 16:15 27.21988 -10.70061 9874 ft 140 kts 210°
2026-05-05 16:15 27.20162 -10.70808 9874 ft 139 kts 210°
2026-05-05 16:16 27.18355 -10.71550 9873 ft 139 kts 210°
2026-05-05 16:16 27.16543 -10.72291 9872 ft 138 kts 210°
2026-05-05 16:17 27.14735 -10.73032 9872 ft 138 kts 210°
2026-05-05 16:17 27.13830 -10.73403 9871 ft 138 kts 210°
2026-05-05 16:18 27.12028 -10.74139 9872 ft 138 kts 210°
2026-05-05 16:18 27.11127 -10.74508 9871 ft 138 kts 210°
2026-05-05 16:18 27.09336 -10.75240 9871 ft 137 kts 210°
2026-05-05 16:19 27.08434 -10.75609 9871 ft 138 kts 210°
2026-05-05 16:19 27.07530 -10.75979 9871 ft 139 kts 210°
2026-05-05 16:19 27.05718 -10.76719 9863 ft 138 kts 211°
2026-05-05 16:20 27.03913 -10.77456 9861 ft 138 kts 211°
2026-05-05 16:20 27.02107 -10.78195 9860 ft 138 kts 211°
2026-05-05 16:21 27.00304 -10.78930 9862 ft 138 kts 211°
2026-05-05 16:22 26.97589 -10.80038 9862 ft 138 kts 211°
2026-05-05 16:22 26.95785 -10.80775 9861 ft 138 kts 211°
2026-05-05 16:23 26.93968 -10.81516 9863 ft 140 kts 211°
2026-05-05 16:23 26.93050 -10.81890 9864 ft 141 kts 211°
2026-05-05 16:23 26.91226 -10.82632 9864 ft 139 kts 211°
2026-05-05 16:24 26.90312 -10.83005 9863 ft 139 kts 211°
2026-05-05 16:24 26.89396 -10.83379 9865 ft 139 kts 211°
2026-05-05 16:24 26.87586 -10.84116 9864 ft 139 kts 211°
2026-05-05 16:25 26.86672 -10.84488 9865 ft 140 kts 211°
2026-05-05 16:25 26.84837 -10.85235 9866 ft 140 kts 211°
2026-05-05 16:25 26.83921 -10.85608 9867 ft 140 kts 211°
2026-05-05 16:26 26.82086 -10.86354 9866 ft 140 kts 211°
2026-05-05 16:26 26.80255 -10.87098 9866 ft 140 kts 211°
2026-05-05 16:27 26.79340 -10.87471 9867 ft 139 kts 211°
2026-05-05 16:27 26.78439 -10.87838 9867 ft 139 kts 211°
2026-05-05 16:27 26.77527 -10.88208 9867 ft 139 kts 211°
2026-05-05 16:27 26.76616 -10.88578 9868 ft 139 kts 211°
2026-05-05 16:28 26.75703 -10.88949 9867 ft 139 kts 211°
2026-05-05 16:28 26.74790 -10.89319 9863 ft 138 kts 212°
2026-05-05 16:28 26.73889 -10.89686 9863 ft 137 kts 212°
2026-05-05 16:28 26.72990 -10.90051 9863 ft 138 kts 212°
2026-05-05 16:29 26.72089 -10.90417 9862 ft 137 kts 212°
2026-05-05 16:29 26.71192 -10.90782 9861 ft 137 kts 212°
2026-05-05 16:29 26.70293 -10.91146 9863 ft 138 kts 212°
2026-05-05 16:29 26.69401 -10.91509 9864 ft 139 kts 212°
2026-05-05 16:30 26.68488 -10.91876 9867 ft 139 kts 211°
2026-05-05 16:30 26.67574 -10.92235 9869 ft 139 kts 212°
2026-05-05 16:30 26.66664 -10.92609 9870 ft 139 kts 212°
2026-05-05 16:30 26.65756 -10.92982 9870 ft 139 kts 212°
2026-05-05 16:31 26.64843 -10.93355 9873 ft 139 kts 212°
2026-05-05 16:31 26.64241 -10.93600 9871 ft 139 kts 212°
2026-05-05 16:31 26.63337 -10.93967 9872 ft 138 kts 212°
2026-05-05 16:31 26.62127 -10.94456 9876 ft 138 kts 213°
2026-05-05 16:32 26.61530 -10.94699 9875 ft 138 kts 213°
2026-05-05 16:32 26.60333 -10.95185 9875 ft 138 kts 213°
2026-05-05 16:32 26.59428 -10.95552 9875 ft 139 kts 213°
2026-05-05 16:32 26.58814 -10.95801 9875 ft 139 kts 213°
2026-05-05 16:33 26.57601 -10.96293 9878 ft 140 kts 213°
2026-05-05 16:33 26.56992 -10.96540 9878 ft 141 kts 213°
2026-05-05 16:33 26.56071 -10.96911 9884 ft 140 kts 213°
2026-05-05 16:33 26.55158 -10.97281 9885 ft 140 kts 213°
2026-05-05 16:34 26.54246 -10.97650 9882 ft 139 kts 213°
2026-05-05 16:34 26.53335 -10.98019 9881 ft 139 kts 213°
2026-05-05 16:34 26.52426 -10.98386 9879 ft 138 kts 213°
2026-05-05 16:34 26.51522 -10.98752 9879 ft 138 kts 213°
2026-05-05 16:35 26.50617 -10.99118 9877 ft 138 kts 213°
2026-05-05 16:35 26.49725 -10.99479 9876 ft 138 kts 213°
2026-05-05 16:35 26.48825 -10.99842 9875 ft 137 kts 213°
2026-05-05 16:35 26.47929 -11.00205 9874 ft 137 kts 213°
2026-05-05 16:36 26.47033 -11.00567 9875 ft 137 kts 213°
2026-05-05 16:36 26.46134 -11.00931 9875 ft 137 kts 213°
2026-05-05 16:36 26.45236 -11.01293 9876 ft 137 kts 213°
2026-05-05 16:36 26.44335 -11.01657 9882 ft 138 kts 213°
2026-05-05 16:37 26.43435 -11.02021 9876 ft 138 kts 212°
2026-05-05 16:37 26.42526 -11.02388 9876 ft 139 kts 212°
2026-05-05 16:37 26.41627 -11.02751 9875 ft 139 kts 212°
2026-05-05 16:37 26.40718 -11.03117 9875 ft 139 kts 212°
2026-05-05 16:38 26.39806 -11.03485 9874 ft 139 kts 212°
2026-05-05 16:38 26.38900 -11.03851 9877 ft 138 kts 212°
2026-05-05 16:38 26.37992 -11.04218 9877 ft 139 kts 212°
2026-05-05 16:38 26.37079 -11.04586 9877 ft 139 kts 212°
2026-05-05 16:39 26.36167 -11.04954 9881 ft 139 kts 212°
2026-05-05 16:39 26.35253 -11.05323 9879 ft 140 kts 212°
2026-05-05 16:39 26.34347 -11.05688 9880 ft 140 kts 212°
2026-05-05 16:39 26.33429 -11.06058 9883 ft 140 kts 212°
2026-05-05 16:40 26.32507 -11.06430 9880 ft 141 kts 212°
2026-05-05 16:40 26.31585 -11.06802 9884 ft 140 kts 212°
2026-05-05 16:40 26.30668 -11.07171 9886 ft 140 kts 212°
2026-05-05 16:40 26.29752 -11.07540 9884 ft 140 kts 212°
2026-05-05 16:41 26.28837 -11.07909 9884 ft 140 kts 212°
2026-05-05 16:41 26.27916 -11.08280 9883 ft 140 kts 212°
2026-05-05 16:41 26.27009 -11.08645 9883 ft 140 kts 212°
2026-05-05 16:41 26.26081 -11.09018 9885 ft 140 kts 212°
2026-05-05 16:42 26.25179 -11.09381 9885 ft 140 kts 212°
2026-05-05 16:42 26.24261 -11.09752 9888 ft 140 kts 212°
2026-05-05 16:42 26.23343 -11.10121 9887 ft 141 kts 211°
2026-05-05 16:42 26.22420 -11.10492 9883 ft 141 kts 211°
2026-05-05 16:43 26.21498 -11.10863 9886 ft 141 kts 211°
2026-05-05 16:43 26.20574 -11.11235 9884 ft 141 kts 212°
2026-05-05 16:43 26.19657 -11.11604 9887 ft 141 kts 212°
2026-05-05 16:43 26.18734 -11.11974 9891 ft 141 kts 212°
2026-05-05 16:44 26.17813 -11.12344 9887 ft 141 kts 212°
2026-05-05 16:44 26.16891 -11.12715 9891 ft 140 kts 212°
2026-05-05 16:44 26.15972 -11.13084 9889 ft 140 kts 212°
2026-05-05 16:44 26.15056 -11.13453 9891 ft 140 kts 212°
2026-05-05 16:45 26.14138 -11.13822 9887 ft 140 kts 212°
2026-05-05 16:45 26.13212 -11.14194 9894 ft 142 kts 211°
2026-05-05 16:45 26.12287 -11.14567 9885 ft 143 kts 210°
2026-05-05 16:45 26.11339 -11.14946 9883 ft 143 kts 211°
2026-05-05 16:46 26.10417 -11.15315 9885 ft 143 kts 211°
2026-05-05 16:46 26.09485 -11.15691 9886 ft 143 kts 211°
2026-05-05 16:46 26.08546 -11.16066 9885 ft 143 kts 211°
2026-05-05 16:46 26.07613 -11.16441 9888 ft 142 kts 211°
2026-05-05 16:47 26.06683 -11.16814 9889 ft 142 kts 210°
2026-05-05 16:47 26.05747 -11.17190 9889 ft 142 kts 210°
2026-05-05 16:47 26.04824 -11.17560 9885 ft 143 kts 210°
2026-05-05 16:47 26.03875 -11.17941 9889 ft 143 kts 210°
2026-05-05 16:48 26.02950 -11.18311 9885 ft 144 kts 210°
2026-05-05 16:48 26.02007 -11.18690 9886 ft 144 kts 211°
2026-05-05 16:48 26.01063 -11.19068 9885 ft 144 kts 211°
2026-05-05 16:48 26.00122 -11.19445 9887 ft 144 kts 210°
2026-05-05 16:49 25.99210 -11.19871 9885 ft 142 kts 212°
2026-05-05 16:49 25.98293 -11.20280 9886 ft 142 kts 212°
2026-05-05 16:49 25.97374 -11.20695 9886 ft 142 kts 212°
2026-05-05 16:49 25.96458 -11.21110 9885 ft 142 kts 212°
2026-05-05 16:50 25.95540 -11.21530 9893 ft 143 kts 212°
2026-05-05 16:50 25.94621 -11.21948 9893 ft 143 kts 212°
2026-05-05 16:50 25.93699 -11.22368 9895 ft 143 kts 212°
2026-05-05 16:50 25.92791 -11.22782 9894 ft 143 kts 212°
2026-05-05 16:51 25.91869 -11.23203 9890 ft 143 kts 213°
2026-05-05 16:51 25.90948 -11.23622 9888 ft 143 kts 212°
2026-05-05 16:51 25.90029 -11.24041 9886 ft 143 kts 212°
2026-05-05 16:51 25.89110 -11.24459 9888 ft 142 kts 212°
2026-05-05 16:52 25.88194 -11.24877 9886 ft 142 kts 212°
2026-05-05 16:52 25.87280 -11.25293 9890 ft 142 kts 212°
2026-05-05 16:52 25.86361 -11.25712 9888 ft 142 kts 212°
2026-05-05 16:52 25.85444 -11.26129 9891 ft 142 kts 213°
2026-05-05 16:53 25.84529 -11.26545 9889 ft 142 kts 212°
2026-05-05 16:53 25.83614 -11.26962 9890 ft 142 kts 213°
2026-05-05 16:53 25.82699 -11.27379 9889 ft 142 kts 212°
2026-05-05 16:53 25.81786 -11.27794 9879 ft 142 kts 212°
2026-05-05 16:54 25.80870 -11.28211 9884 ft 143 kts 210°
2026-05-05 16:54 25.79963 -11.28623 9886 ft 143 kts 210°
2026-05-05 16:54 25.79043 -11.29041 9885 ft 143 kts 210°
2026-05-05 16:54 25.78119 -11.29462 9883 ft 144 kts 210°
2026-05-05 16:55 25.77190 -11.29885 9885 ft 144 kts 210°
2026-05-05 16:55 25.76259 -11.30308 9885 ft 144 kts 210°
2026-05-05 16:55 25.75326 -11.30731 9889 ft 145 kts 210°
2026-05-05 16:55 25.74394 -11.31155 9887 ft 145 kts 210°
2026-05-05 16:56 25.73458 -11.31580 9895 ft 145 kts 210°
2026-05-05 16:56 25.72537 -11.31999 9894 ft 145 kts 211°
2026-05-05 16:56 25.71603 -11.32423 9891 ft 145 kts 211°
2026-05-05 16:56 25.70665 -11.32849 9892 ft 145 kts 211°
2026-05-05 16:57 25.69730 -11.33274 9890 ft 145 kts 211°
2026-05-05 16:57 25.68788 -11.33702 9890 ft 146 kts 210°
2026-05-05 16:57 25.67852 -11.34126 9884 ft 145 kts 211°
2026-05-05 16:57 25.66915 -11.34551 9885 ft 145 kts 211°
2026-05-05 16:58 25.65979 -11.34976 9886 ft 145 kts 211°
2026-05-05 16:58 25.65057 -11.35394 9884 ft 145 kts 211°
2026-05-05 16:58 25.64108 -11.35825 9890 ft 146 kts 211°
2026-05-05 16:58 25.63183 -11.36244 9888 ft 146 kts 210°
2026-05-05 16:59 25.62247 -11.36669 9890 ft 145 kts 210°
2026-05-05 16:59 25.61311 -11.37093 9886 ft 145 kts 211°
2026-05-05 16:59 25.60376 -11.37517 9886 ft 145 kts 211°
2026-05-05 16:59 25.59440 -11.37941 9886 ft 145 kts 211°
2026-05-05 17:00 25.58502 -11.38366 9887 ft 145 kts 211°
2026-05-05 17:00 25.57564 -11.38792 9889 ft 145 kts 211°
2026-05-05 17:00 25.56629 -11.39215 9889 ft 145 kts 211°
2026-05-05 17:00 25.55706 -11.39633 9877 ft 145 kts 211°
2026-05-05 17:01 25.54773 -11.40055 9884 ft 145 kts 210°
2026-05-05 17:01 25.53837 -11.40479 9881 ft 145 kts 210°
2026-05-05 17:01 25.52898 -11.40904 9883 ft 146 kts 210°
2026-05-05 17:01 25.51960 -11.41329 9885 ft 146 kts 211°
2026-05-05 17:02 25.51021 -11.41753 9879 ft 146 kts 211°
2026-05-05 17:02 25.50083 -11.42178 9873 ft 145 kts 209°
2026-05-05 17:02 25.49145 -11.42602 9882 ft 146 kts 208°
2026-05-05 17:02 25.48205 -11.43027 9881 ft 146 kts 208°
2026-05-05 17:03 25.47275 -11.43448 9885 ft 146 kts 208°
2026-05-05 17:03 25.46321 -11.43876 9903 ft 146 kts 208°
2026-05-05 17:03 25.45383 -11.44304 9897 ft 146 kts 208°
2026-05-05 17:03 25.44453 -11.44724 9896 ft 146 kts 208°
2026-05-05 17:04 25.43508 -11.45151 9886 ft 146 kts 208°
2026-05-05 17:04 25.42561 -11.45578 9887 ft 147 kts 208°
2026-05-05 17:04 25.41616 -11.46005 9888 ft 147 kts 208°
2026-05-05 17:04 25.40673 -11.46431 9888 ft 146 kts 208°
2026-05-05 17:05 25.39730 -11.46856 9888 ft 146 kts 208°
2026-05-05 17:05 25.38788 -11.47282 9888 ft 146 kts 208°
2026-05-05 17:05 25.37845 -11.47707 9888 ft 147 kts 208°
2026-05-05 17:05 25.36899 -11.48135 9887 ft 147 kts 208°
2026-05-05 17:06 25.35963 -11.48558 9886 ft 148 kts 207°
2026-05-05 17:06 25.35011 -11.48986 9884 ft 147 kts 208°
2026-05-05 17:06 25.34061 -11.49415 9886 ft 147 kts 208°
2026-05-05 17:06 25.33114 -11.49842 9886 ft 147 kts 208°
2026-05-05 17:07 25.32169 -11.50268 9886 ft 147 kts 208°
2026-05-05 17:07 25.31225 -11.50694 9876 ft 147 kts 208°
2026-05-05 17:07 25.30281 -11.51120 9876 ft 146 kts 208°
2026-05-05 17:07 25.29338 -11.51545 9876 ft 146 kts 208°
2026-05-05 17:08 25.28399 -11.51968 9873 ft 146 kts 208°
2026-05-05 17:08 25.27460 -11.52391 9874 ft 146 kts 208°
2026-05-05 17:08 25.26517 -11.52816 9873 ft 146 kts 208°
2026-05-05 17:08 25.25575 -11.53241 9874 ft 147 kts 208°
2026-05-05 17:09 25.24628 -11.53666 9877 ft 146 kts 208°
2026-05-05 17:09 25.23685 -11.54091 9877 ft 146 kts 208°
2026-05-05 17:09 25.22744 -11.54515 9877 ft 146 kts 208°
2026-05-05 17:09 25.21801 -11.54939 9878 ft 146 kts 208°
2026-05-05 17:10 25.20830 -11.55303 9878 ft 147 kts 206°
2026-05-05 17:10 25.19861 -11.55676 9878 ft 148 kts 206°
2026-05-05 17:10 25.18889 -11.56049 9878 ft 148 kts 206°
2026-05-05 17:10 25.17916 -11.56419 9859 ft 148 kts 206°
2026-05-05 17:11 25.16939 -11.56789 9860 ft 149 kts 206°
2026-05-05 17:11 25.15961 -11.57159 9860 ft 149 kts 206°
2026-05-05 17:11 25.14980 -11.57530 9860 ft 149 kts 206°
2026-05-05 17:11 25.14010 -11.57896 9859 ft 149 kts 206°
2026-05-05 17:12 25.13032 -11.58266 9862 ft 148 kts 206°
2026-05-05 17:12 25.12056 -11.58635 9862 ft 148 kts 206°
2026-05-05 17:12 25.11080 -11.59004 9862 ft 148 kts 206°
2026-05-05 17:12 25.10101 -11.59374 9861 ft 149 kts 206°
2026-05-05 17:13 25.09123 -11.59743 9861 ft 148 kts 206°
2026-05-05 17:13 25.08146 -11.60112 9861 ft 148 kts 206°
2026-05-05 17:13 25.07171 -11.60481 9869 ft 148 kts 206°
2026-05-05 17:13 25.06195 -11.60849 9870 ft 148 kts 206°
2026-05-05 17:14 25.05218 -11.61218 9862 ft 149 kts 206°
2026-05-05 17:14 25.04238 -11.61588 9862 ft 149 kts 206°
2026-05-05 17:14 25.03272 -11.61952 9861 ft 148 kts 206°
2026-05-05 17:14 25.02295 -11.62320 9861 ft 148 kts 206°
2026-05-05 17:15 25.01317 -11.62690 9858 ft 148 kts 206°
2026-05-05 17:15 25.00339 -11.63059 9858 ft 148 kts 206°
2026-05-05 17:15 24.99363 -11.63426 9858 ft 148 kts 206°
2026-05-05 17:15 24.98386 -11.63795 9858 ft 148 kts 206°
2026-05-05 17:16 24.97412 -11.64162 9862 ft 148 kts 206°
2026-05-05 17:16 24.96432 -11.64531 9862 ft 149 kts 206°
2026-05-05 17:16 24.95455 -11.64899 9862 ft 148 kts 206°
2026-05-05 17:16 24.94475 -11.65269 9861 ft 148 kts 206°
2026-05-05 17:17 24.93511 -11.65632 9861 ft 148 kts 206°
2026-05-05 17:17 24.92533 -11.66000 9856 ft 148 kts 206°
2026-05-05 17:17 24.91557 -11.66368 9856 ft 148 kts 206°
2026-05-05 17:17 24.90582 -11.66735 9856 ft 148 kts 206°
2026-05-05 17:18 24.89608 -11.67102 9858 ft 148 kts 205°
2026-05-05 17:18 24.88633 -11.67469 9858 ft 148 kts 206°
2026-05-05 17:18 24.87659 -11.67835 9857 ft 148 kts 206°
2026-05-05 17:18 24.86697 -11.68197 9851 ft 148 kts 206°
2026-05-05 17:19 24.85722 -11.68564 9856 ft 148 kts 206°
2026-05-05 17:19 24.84747 -11.68931 9856 ft 148 kts 206°
2026-05-05 17:19 24.83771 -11.69299 9856 ft 149 kts 206°
2026-05-05 17:19 24.82792 -11.69666 9856 ft 148 kts 206°
2026-05-05 17:20 24.81815 -11.70034 9856 ft 148 kts 206°
2026-05-05 17:20 24.80838 -11.70401 9856 ft 148 kts 206°
2026-05-05 17:20 24.79861 -11.70768 9854 ft 148 kts 206°
2026-05-05 17:20 24.78884 -11.71135 9854 ft 148 kts 206°
2026-05-05 17:21 24.77908 -11.71502 9851 ft 148 kts 206°
2026-05-05 17:21 24.77259 -11.71746 9851 ft 149 kts 206°
2026-05-05 17:21 24.76281 -11.72113 9852 ft 149 kts 206°
2026-05-05 17:22 24.74001 -11.72970 9852 ft 149 kts 206°
2026-05-05 17:22 24.73018 -11.73338 9852 ft 149 kts 206°
2026-05-05 17:22 24.72367 -11.73583 9852 ft 149 kts 206°
2026-05-05 17:22 24.71390 -11.73949 9852 ft 149 kts 206°
2026-05-05 17:23 24.70409 -11.74317 9853 ft 149 kts 206°
2026-05-05 17:23 24.69427 -11.74686 9853 ft 149 kts 206°
2026-05-05 17:23 24.68447 -11.75053 9852 ft 149 kts 206°
2026-05-05 17:23 24.67468 -11.75421 9849 ft 149 kts 206°
2026-05-05 17:24 24.66487 -11.75789 9852 ft 149 kts 206°
2026-05-05 17:24 24.65509 -11.76155 9852 ft 149 kts 206°
2026-05-05 17:24 24.64530 -11.76522 9853 ft 149 kts 206°
2026-05-05 17:24 24.63551 -11.76890 9852 ft 149 kts 206°
2026-05-05 17:25 24.62569 -11.77257 9853 ft 149 kts 206°
2026-05-05 17:25 24.61919 -11.77501 9852 ft 149 kts 206°
2026-05-05 17:25 24.60624 -11.77986 9852 ft 148 kts 206°
2026-05-05 17:25 24.59649 -11.78351 9853 ft 148 kts 206°
2026-05-05 17:26 24.58671 -11.78717 9850 ft 148 kts 206°
2026-05-05 17:26 24.57693 -11.79084 9850 ft 149 kts 206°
2026-05-05 17:26 24.56711 -11.79451 9849 ft 149 kts 206°
2026-05-05 17:26 24.55734 -11.79817 9849 ft 148 kts 206°
2026-05-05 17:27 24.54754 -11.80183 9850 ft 148 kts 206°
2026-05-05 17:27 24.53780 -11.80548 9835 ft 148 kts 206°
2026-05-05 17:27 24.52807 -11.80912 9835 ft 148 kts 206°
2026-05-05 17:27 24.51840 -11.81273 9835 ft 148 kts 206°
2026-05-05 17:28 24.50865 -11.81638 9835 ft 148 kts 206°
2026-05-05 17:28 24.49892 -11.82002 9834 ft 148 kts 206°
2026-05-05 17:28 24.48918 -11.82366 9834 ft 148 kts 206°
2026-05-05 17:28 24.47945 -11.82730 9834 ft 148 kts 206°
2026-05-05 17:29 24.46967 -11.83095 9834 ft 148 kts 206°
2026-05-05 17:29 24.45990 -11.83461 9834 ft 148 kts 206°
2026-05-05 17:29 24.45012 -11.83825 9834 ft 148 kts 206°
2026-05-05 17:29 24.44036 -11.84190 9835 ft 148 kts 206°
2026-05-05 17:30 24.43060 -11.84555 9837 ft 148 kts 206°
2026-05-05 17:30 24.42085 -11.84919 9837 ft 148 kts 206°
2026-05-05 17:30 24.41109 -11.85283 9836 ft 148 kts 206°
2026-05-05 17:30 24.40138 -11.85646 9836 ft 148 kts 206°
2026-05-05 17:31 24.39167 -11.86008 9840 ft 147 kts 206°
2026-05-05 17:31 24.38196 -11.86371 9839 ft 147 kts 206°
2026-05-05 17:31 24.37235 -11.86730 9839 ft 147 kts 206°
2026-05-05 17:31 24.36265 -11.87092 9839 ft 147 kts 206°
2026-05-05 17:32 24.35294 -11.87453 9839 ft 147 kts 206°
2026-05-05 17:32 24.34320 -11.87817 9839 ft 148 kts 206°
2026-05-05 17:32 24.33347 -11.88180 9839 ft 148 kts 206°
2026-05-05 17:32 24.32373 -11.88543 9840 ft 148 kts 206°
2026-05-05 17:33 24.31397 -11.88906 9840 ft 148 kts 206°
2026-05-05 17:33 24.30423 -11.89269 9840 ft 148 kts 206°
2026-05-05 17:33 24.29450 -11.89632 9837 ft 148 kts 206°
2026-05-05 17:33 24.28475 -11.89995 9838 ft 148 kts 206°
2026-05-05 17:34 24.27511 -11.90354 9835 ft 148 kts 206°
2026-05-05 17:34 24.26533 -11.90719 9835 ft 148 kts 206°
2026-05-05 17:34 24.25555 -11.91083 9835 ft 148 kts 206°
2026-05-05 17:34 24.24578 -11.91447 9835 ft 148 kts 206°
2026-05-05 17:35 24.23604 -11.91810 9835 ft 148 kts 206°
2026-05-05 17:35 24.22642 -11.92167 9835 ft 148 kts 206°
2026-05-05 17:35 24.21666 -11.92531 9834 ft 148 kts 206°
2026-05-05 17:35 24.20691 -11.92894 9835 ft 148 kts 206°
2026-05-05 17:36 24.19717 -11.93255 9835 ft 148 kts 206°
2026-05-05 17:36 24.18742 -11.93619 9835 ft 148 kts 206°
2026-05-05 17:36 24.17768 -11.93981 9835 ft 148 kts 206°
2026-05-05 17:36 24.16795 -11.94343 9835 ft 148 kts 206°
2026-05-05 17:37 24.15817 -11.94706 9835 ft 148 kts 206°
2026-05-05 17:37 24.14840 -11.95069 9835 ft 148 kts 206°
2026-05-05 17:37 24.13866 -11.95432 9836 ft 148 kts 206°
2026-05-05 17:37 24.12900 -11.95791 9836 ft 149 kts 206°
2026-05-05 17:38 24.11919 -11.96155 9836 ft 148 kts 206°
2026-05-05 17:38 24.10943 -11.96517 9836 ft 148 kts 206°
2026-05-05 17:38 24.09965 -11.96881 9836 ft 148 kts 206°
2026-05-05 17:38 24.08987 -11.97244 9836 ft 148 kts 206°
2026-05-05 17:39 24.08010 -11.97607 9834 ft 148 kts 206°
2026-05-05 17:39 24.07030 -11.97970 9834 ft 148 kts 206°
2026-05-05 17:39 24.06053 -11.98334 9834 ft 148 kts 206°
2026-05-05 17:39 24.05073 -11.98697 9834 ft 148 kts 206°
2026-05-05 17:40 24.04096 -11.99060 9834 ft 148 kts 206°
2026-05-05 17:40 24.03120 -11.99422 9831 ft 148 kts 206°
2026-05-05 17:40 24.02140 -11.99786 9831 ft 148 kts 206°
2026-05-05 17:40 24.01160 -12.00149 9830 ft 149 kts 206°
2026-05-05 17:41 24.00192 -12.00507 9827 ft 149 kts 206°
2026-05-05 17:41 23.99214 -12.00871 9828 ft 148 kts 206°
2026-05-05 17:41 23.98235 -12.01233 9828 ft 148 kts 206°
2026-05-05 17:41 23.97259 -12.01595 9828 ft 148 kts 206°
2026-05-05 17:42 23.96285 -12.01957 9826 ft 148 kts 206°
2026-05-05 17:42 23.95310 -12.02317 9826 ft 148 kts 206°
2026-05-05 17:42 23.94336 -12.02678 9826 ft 148 kts 206°
2026-05-05 17:42 23.93363 -12.03039 9826 ft 148 kts 206°
2026-05-05 17:43 23.92388 -12.03400 9830 ft 148 kts 206°
2026-05-05 17:43 23.91410 -12.03762 9829 ft 148 kts 206°
2026-05-05 17:43 23.90445 -12.04119 9827 ft 148 kts 206°
2026-05-05 17:43 23.89466 -12.04482 9832 ft 148 kts 206°
2026-05-05 17:44 23.88491 -12.04843 9833 ft 148 kts 206°
2026-05-05 17:44 23.87519 -12.05202 9833 ft 147 kts 206°
2026-05-05 17:44 23.86545 -12.05562 9833 ft 147 kts 206°
2026-05-05 17:44 23.85576 -12.05921 9834 ft 147 kts 206°
2026-05-05 17:45 23.84604 -12.06281 9834 ft 147 kts 206°
2026-05-05 17:45 23.83633 -12.06639 9834 ft 147 kts 206°
2026-05-05 17:45 23.82663 -12.06998 9833 ft 147 kts 206°
2026-05-05 17:45 23.81694 -12.07357 9834 ft 147 kts 206°
2026-05-05 17:46 23.80723 -12.07716 9831 ft 147 kts 206°
2026-05-05 17:46 23.79748 -12.08073 9831 ft 148 kts 206°
2026-05-05 17:46 23.78774 -12.08436 9831 ft 148 kts 206°
2026-05-05 17:46 23.77803 -12.08796 9831 ft 148 kts 206°
2026-05-05 17:47 23.76828 -12.09156 9834 ft 148 kts 206°
2026-05-05 17:47 23.75869 -12.09510 9834 ft 147 kts 206°
2026-05-05 17:47 23.74900 -12.09867 9834 ft 147 kts 206°
2026-05-05 17:47 23.73930 -12.10225 9834 ft 147 kts 206°
2026-05-05 17:48 23.72958 -12.10584 9834 ft 147 kts 206°
2026-05-05 17:48 23.71981 -12.10946 9834 ft 147 kts 206°
2026-05-05 17:48 23.71011 -12.11303 9834 ft 147 kts 206°
2026-05-05 17:48 23.70042 -12.11660 9834 ft 147 kts 206°
2026-05-05 17:49 23.69073 -12.12018 9837 ft 147 kts 206°
2026-05-05 17:49 23.68102 -12.12377 9837 ft 147 kts 206°
2026-05-05 17:49 23.67129 -12.12735 9837 ft 147 kts 206°
2026-05-05 17:49 23.66160 -12.13092 9837 ft 147 kts 206°
2026-05-05 17:50 23.65189 -12.13451 9834 ft 147 kts 206°
2026-05-05 17:50 23.64232 -12.13803 9834 ft 147 kts 206°
2026-05-05 17:50 23.63263 -12.14160 9833 ft 147 kts 206°
2026-05-05 17:50 23.62292 -12.14518 9832 ft 147 kts 206°
2026-05-05 17:51 23.61324 -12.14875 9835 ft 146 kts 206°
2026-05-05 17:51 23.60359 -12.15230 9834 ft 146 kts 206°
2026-05-05 17:51 23.59395 -12.15586 9835 ft 146 kts 206°
2026-05-05 17:51 23.58430 -12.15942 9829 ft 147 kts 205°
2026-05-05 17:52 23.57448 -12.16303 9828 ft 150 kts 205°
2026-05-05 17:52 23.56453 -12.16670 9829 ft 151 kts 205°
2026-05-05 17:52 23.55451 -12.17039 9831 ft 152 kts 205°
2026-05-05 17:52 23.54445 -12.17409 9831 ft 153 kts 205°
2026-05-05 17:53 23.53448 -12.17775 9832 ft 153 kts 204°
2026-05-05 17:53 23.52767 -12.18026 9832 ft 153 kts 204°